Location: Brede
(50.9167°N, 0.6000°E)
Time: 19:25:45
(UTC+00:00)

Cosmos 1603 - Pass Details

Date: 08 August 2020
Orbit: 831 x 860 km, 71.0° (Epoch: 23 September)

Event Time Altitude Azimuth Distance (km) Brightness Sun altitude
Rises 02:22:25 0° 331° (NNW) 3,448 7.2 -16.5°
Reaches altitude 10° 02:24:56 10° 335° (NNW) 2,507 6.6 -16.2°
Maximum altitude 02:30:37 57° 55° (NE) 1,006 4.4 -15.7°
Drops below altitude 10° 02:36:14 10° 133° (SE) 2,480 6.1 -15.2°
Sets 02:38:43 0° 138° (SE) 3,409 6.8 -14.9°
